User: anonymous   Login
Location: Unspecified
(0.0000°N, 0.0000°E)
Time: 17:20:19
(UTC+00:00)
Language:

NAVSTAR 65 (USA 213) - Orbit

View from above orbital plane
View from above orbital plane
View from above satellite
View from above satellite

Ground track
Ground track

The orbit data is extracted from the following two-line orbital elements,

1 36585U 10022A   15085.40727140 -.00000092  00000-0  00000+0 0  9997
2 36585 056.0380 012.8478 0042657 036.4962 152.7615 02.00560353 35352
Epoch (UTC): 26 March 2015 09:46:28
Eccentricity: 0.0042657
inclination: 56.0380°
perigee height: 20069 km
apogee height: 20295 km
right ascension of ascending node: 12.8478°
argument of perigee: 36.4962°
revolutions per day: 2.00560353
mean anomaly at epoch: 152.7615°
orbit number at epoch: 3535

The dashed part of the orbit path shows where the satellite is in the earth's shadow,  

DLR